Location: Bayshore Village Mobile Home Park
(26.6945°N, 81.8642°W)
Time: 22:53:26
(UTC+00:00)

Cosmos 2016 Rocket - Pass Details

Date: 17 June 2021
Orbit: 947 x 1000 km, 83.0° (Epoch: 31 July)

Event Time Altitude Azimuth Distance (km) Brightness Sun altitude
Rises 03:22:34 0° 358° (N) 3,617 7.8 -31.4°
Reaches altitude 10° 03:25:04 10° 0° (N) 2,671 6.9 -31.7°
Enters shadow 03:29:51 55° 24° (NNE) 1,135 4.4 -32.3°
